Total_Precipitation_Accumulation
3.95 4.54 5.44 4.67 4.01 3.86 3.98 3.81 3.57 3.45 3.32 3.17 3.01 2.82 2.51 2.18 1.98 1.90 1.84 1.77 1.77 1.81 1.81 1.91 1.96 1.91 2.00 2.21 2.35 2.31 2.15 2.16 2.39 2.68 2.82 2.83 2.94 3.13 3.42 3.59 3.43 2.60 2.51
3.29 4.04 4.80 4.30 3.67 3.52 3.47 3.50 3.41 3.34 3.32 3.14 3.08 2.83 2.57 2.32 2.03 1.86 1.77 1.66 1.67 1.69 1.58 1.67 1.74 1.70 1.77 1.97 2.13 2.04 2.07 2.34 2.90 3.40 3.58 3.29 3.30 3.51 3.58 3.46 3.39 2.77 2.45
2.78 3.14 3.68 3.77 3.44 3.29 3.06 3.12 3.25 3.15 3.22 2.99 2.81 2.62 2.53 2.33 2.00 1.78 1.69 1.65 1.65 1.61 1.45 1.54 1.61 1.53 1.66 1.86 1.93 1.85 2.04 2.54 3.33 4.25 4.43 3.59 3.15 3.55 3.58 3.38 3.02 2.58 2.27
2.31 2.79 2.99 3.28 3.14 2.91 2.71 2.83 2.88 2.94 2.90 2.79 2.55 2.37 2.30 2.23 1.98 1.69 1.62 1.60 1.55 1.48 1.44 1.54 1.60 1.63 1.66 1.73 1.73 1.94 2.25 2.56 3.32 4.02 3.98 2.99 2.53 2.91 3.12 2.77 2.51 2.39 2.09
2.14 2.50 2.86 2.89 2.70 2.50 2.39 2.51 2.61 2.63 2.58 2.62 2.45 2.31 2.19 2.06 1.86 1.64 1.53 1.55 1.51 1.49 1.44 1.52 1.70 1.81 1.79 1.74 1.74 2.07 2.43 2.78 3.25 3.49 3.01 3.10 2.93 2.72 2.62 2.44 2.30 2.13 1.90
1.76 1.95 2.37 2.51 2.40 2.40 2.32 2.25 2.35 2.35 2.42 2.51 2.38 2.25 2.31 2.19 1.97 1.69 1.51 1.48 1.49 1.50 1.51 1.61 1.76 1.88 1.79 1.66 1.75 2.15 2.47 2.92 3.00 2.37 2.02 2.31 2.32 2.39 2.45 2.42 2.22 1.98 1.89
1.58 1.71 2.04 2.34 2.34 2.29 2.11 1.98 2.16 2.29 2.28 2.28 2.21 2.06 2.16 2.09 1.94 1.72 1.51 1.45 1.40 1.43 1.52 1.64 1.73 1.80 1.69 1.66 1.77 2.14 2.57 2.92 2.63 1.93 1.71 2.00 1.94 2.12 2.41 2.45 2.37 2.04 1.81
1.44 1.59 1.94 2.25 2.18 2.06 1.96 2.00 2.21 2.30 2.17 2.09 2.08 1.99 1.98 2.01 1.96 1.85 1.66 1.59 1.47 1.47 1.60 1.67 1.71 1.66 1.63 1.70 1.94 2.15 2.51 2.48 1.97 1.74 1.64 1.78 1.52 1.88 2.23 2.19 2.09 1.95 1.74
1.74 1.78 1.85 1.89 1.96 2.02 2.20 2.36 2.53 2.45 2.14 2.03 2.03 1.94 1.84 1.83 1.86 1.80 1.79 1.75 1.68 1.66 1.73 1.84 1.77 1.71 1.69 1.79 1.97 2.15 2.54 2.72 2.26 2.03 1.71 1.77 1.56 1.83 2.26 2.10 1.87 1.79 1.81
2.46 2.28 2.04 1.94 2.12 2.10 2.21 2.48 2.60 2.34 2.05 1.96 2.03 2.01 1.98 2.10 2.17 2.13 1.97 1.97 2.07 2.13 2.12 2.16 2.05 1.97 1.90 2.02 2.16 2.33 2.63 2.49 2.23 2.29 2.17 1.76 1.55 1.97 2.34 2.44 2.16 1.92 1.83
2.92 2.75 2.52 2.28 2.10 2.22 2.30 2.43 2.79 2.58 2.31 2.35 2.58 2.61 2.75 3.18 2.96 2.93 2.41 2.52 2.72 2.83 2.83 2.80 2.72 2.56 2.28 2.15 2.41 2.63 2.50 2.26 2.63 2.73 2.46 1.77 1.84 2.45 2.71 2.83 2.65 2.43 2.25
2.93 2.67 2.54 2.45 2.10 2.08 2.22 2.75 3.40 3.06 2.89 2.93 3.25 3.18 3.56 3.61 3.46 2.72 2.82 3.33 3.53 3.82 3.87 3.77 3.67 3.19 2.66 2.36 2.66 2.69 2.42 2.61 3.07 2.67 2.19 1.79 2.07 2.64 3.02 3.11 2.92 2.65 2.54
2.71 2.62 2.37 2.68 2.40 2.46 2.84 2.98 3.30 3.46 3.40 3.38 3.42 3.39 3.66 3.30 3.04 3.01 3.50 3.87 4.13 4.27 4.33 4.21 4.03 3.35 3.32 3.49 3.44 3.07 3.01 2.99 3.30 2.85 2.21 2.08 2.35 2.84 3.19 3.29 3.11 2.85 2.70
2.57 2.58 2.66 2.80 2.89 3.08 3.12 3.04 2.94 2.81 2.84 3.02 3.20 3.17 3.36 3.49 3.54 3.52 3.79 3.94 4.13 4.51 4.92 4.67 4.61 4.19 4.06 3.82 3.62 3.65 3.45 3.17 3.42 3.48 2.88 2.39 2.54 3.03 3.35 3.40 3.21 3.06 3.09
3.25 3.08 3.17 3.41 3.45 3.40 3.45 3.21 2.73 2.57 2.48 2.53 2.73 2.88 2.85 3.21 3.51 3.53 3.48 3.64 3.55 3.72 4.15 4.73 4.58 4.72 4.59 4.14 3.63 3.53 3.67 3.57 3.47 3.34 2.90 2.75 2.95 3.06 3.23 3.34 3.36 3.36 3.38
4.24 4.04 3.88 4.00 3.69 3.52 3.46 3.22 2.98 2.59 2.61 2.53 2.49 2.48 2.69 2.95 3.25 3.24 3.26 3.57 3.55 3.44 3.60 4.07 4.22 4.66 4.61 4.20 3.57 3.28 3.35 3.47 3.31 3.16 2.96 2.88 2.94 2.79 2.92 3.38 3.76 3.96 3.88
5.36 4.99 4.44 4.20 3.93 3.78 3.61 3.24 2.86 2.67 2.51 2.68 2.67 2.53 2.60 2.72 2.98 2.98 3.10 3.13 3.16 3.07 3.22 3.43 3.65 3.94 3.85 3.66 3.57 3.32 3.22 3.16 2.92 2.96 3.01 2.87 2.55 2.73 2.90 3.17 3.52 3.81 4.06
6.12 5.59 4.86 4.11 4.22 4.18 4.00 3.40 2.92 2.75 2.69 2.67 2.54 2.39 2.33 2.49 2.50 2.67 2.68 2.63 2.67 2.54 2.70 3.14 3.18 3.40 3.60 3.58 3.75 3.47 3.17 3.24 2.98 2.91 2.91 2.96 2.95 2.59 2.95 3.12 3.29 3.47 3.86
6.25 6.10 5.46 5.31 5.12 4.52 3.88 3.34 2.98 2.77 2.74 2.50 2.44 2.41 2.41 2.39 2.46 2.63 2.76 2.75 2.36 2.37 2.52 2.33 2.82 3.09 3.28 3.29 2.86 2.98 2.70 2.77 2.74 2.45 2.56 2.52 2.78 2.82 3.01 2.97 3.19 3.21 3.56
5.25 5.18 5.10 5.22 4.82 4.24 3.65 3.25 3.06 2.84 2.59 2.41 2.39 2.51 2.51 2.45 2.40 2.74 2.58 2.39 2.16 2.53 2.83 2.89 3.25 3.18 3.00 3.01 2.49 2.59 2.40 2.26 2.34 2.26 2.16 2.26 2.38 2.33 2.71 2.91 3.02 2.70 3.05
3.77 3.88 4.22 4.38 4.16 3.72 3.35 2.91 2.82 2.80 2.56 2.36 2.28 2.16 2.33 2.25 2.45 2.86 2.59 2.91 2.58 2.65 2.81 2.83 3.06 3.02 2.71 2.67 3.08 3.08 2.49 2.03 2.08 1.97 1.94 2.16 2.14 2.25 2.67 2.98 3.15 3.12 2.91
2.99 3.27 3.62 3.87 3.73 3.15 2.95 2.80 2.74 2.73 2.54 2.58 2.49 2.47 2.23 2.20 2.42 2.49 2.89 2.66 2.72 2.90 2.88 2.94 3.11 3.11 2.82 2.80 3.25 3.59 3.17 3.05 2.64 1.84 1.91 2.08 2.13 2.35 2.41 2.43 2.75 3.20 3.09
2.79 3.01 2.91 3.18 3.37 3.12 3.04 2.98 2.91 2.90 2.71 2.81 2.80 2.71 2.34 2.16 2.14 2.33 2.51 2.53 2.79 2.59 2.94 3.16 3.13 3.25 3.29 3.10 3.14 3.60 3.61 3.48 2.92 2.31 1.87 1.87 2.13 2.51 2.49 2.53 2.39 2.75 3.06
2.07 2.37 2.73 3.06 3.14 3.07 2.98 2.80 2.71 2.53 2.49 2.52 2.54 2.56 2.40 2.25 2.14 2.21 2.32 2.64 2.85 2.59 3.15 2.73 2.85 3.13 3.33 3.15 3.11 2.97 3.11 3.36 3.39 3.09 2.50 1.98 2.00 2.29 2.46 2.29 2.31 2.71 3.03
1.55 1.96 2.52 2.99 3.21 3.11 2.79 2.67 2.81 2.65 2.56 2.56 2.47 2.65 2.48 2.32 2.14 2.03 2.30 2.59 2.73 2.63 2.81 2.87 3.16 3.01 2.98 2.99 3.07 3.14 3.30 3.26 2.98 3.10 3.05 2.70 2.37 1.89 1.78 1.97 2.27 2.46 2.70
1.43 1.65 2.11 2.55 2.84 2.90 2.71 2.61 2.69 2.79 2.78 2.66 2.52 2.49 2.30 2.26 2.19 2.10 2.31 2.61 2.57 2.64 2.83 2.79 2.96 2.95 3.02 3.10 2.93 2.85 3.12 3.12 3.01 3.10 2.80 2.59 2.50 1.86 1.58 1.63 1.85 2.26 2.48